TimeAKST,TemperatureF,Dew PointF,Humidity,Sea Level PressureIn,VisibilityMPH,Wind Direction,Wind SpeedMPH,Gust SpeedMPH,PrecipitationIn,Events,Conditions,WindDirDegrees,DateUTC
12:54 AM,1.9,-8.0,63,29.93,10.0,WNW,6.9,-,N/A,,Clear,300,2011-11-20 09:54:00
1:54 AM,3.0,-9.0,57,29.90,10.0,NW,9.2,19.6,N/A,,Clear,310,2011-11-20 10:54:00
2:54 AM,-5.1,-11.0,76,29.87,10.0,WNW,12.7,-,N/A,,Clear,290,2011-11-20 11:54:00
3:54 AM,-5.1,-11.0,76,29.84,10.0,WNW,10.4,-,N/A,,Clear,290,2011-11-20 12:54:00
4:54 AM,-6.0,-11.0,79,29.82,10.0,WNW,9.2,-,N/A,,Clear,290,2011-11-20 13:54:00
5:54 AM,-6.0,-11.0,79,29.79,10.0,WNW,12.7,-,N/A,,Clear,290,2011-11-20 14:54:00
6:54 AM,-2.9,-11.0,68,29.77,10.0,WNW,13.8,-,N/A,,Overcast,290,2011-11-20 15:54:00
7:54 AM,-4.0,-9.9,76,29.74,10.0,WNW,10.4,-,N/A,,Overcast,290,2011-11-20 16:54:00
9:54 AM,1.9,-9.0,60,29.70,10.0,NW,15.0,-,N/A,,Overcast,310,2011-11-20 18:54:00
10:54 AM,1.0,-8.0,66,29.68,10.0,WNW,13.8,-,N/A,,Overcast,290,2011-11-20 19:54:00
11:54 AM,1.0,-7.1,69,29.66,10.0,WNW,12.7,-,N/A,,Overcast,290,2011-11-20 20:54:00
12:54 PM,1.9,-7.1,66,29.62,10.0,WNW,12.7,-,N/A,,Overcast,300,2011-11-20 21:54:00
1:54 PM,3.9,-8.0,58,29.58,10.0,NW,18.4,21.9,N/A,,Overcast,310,2011-11-20 22:54:00
2:54 PM,3.9,-7.1,60,29.54,10.0,NW,13.8,19.6,N/A,,Overcast,310,2011-11-20 23:54:00
3:54 PM,5.0,-9.0,52,29.51,10.0,NNW,12.7,24.2,N/A,,Overcast,330,2011-11-21 00:54:00
4:54 PM,1.9,-7.1,66,29.46,10.0,WNW,12.7,-,N/A,,Overcast,300,2011-11-21 01:54:00
5:54 PM,3.9,-8.0,58,29.42,10.0,NW,13.8,23.0,N/A,,Mostly Cloudy,320,2011-11-21 02:54:00
6:54 PM,5.0,-8.0,55,29.38,10.0,NW,15.0,21.9,N/A,,Overcast,320,2011-11-21 03:54:00
7:54 PM,3.0,-6.0,66,29.34,10.0,NW,16.1,23.0,N/A,,Overcast,310,2011-11-21 04:54:00
8:54 PM,5.0,-7.1,58,29.31,10.0,West,13.8,19.6,N/A,,Overcast,280,2011-11-21 05:54:00
9:54 PM,3.9,-5.1,66,29.26,10.0,WNW,11.5,-,N/A,,Overcast,300,2011-11-21 06:54:00
10:54 PM,5.0,-5.1,63,29.21,10.0,NW,15.0,24.2,N/A,,Overcast,320,2011-11-21 07:54:00
11:54 PM,7.0,-6.0,55,29.16,10.0,NW,17.3,26.5,N/A,,Overcast,310,2011-11-21 08:54:00